Change the Weather History Date:

Thursday, July 11, 2013

  Actual Average (KDAY) Record (KDAY)
Temperature  
Mean Temperature 68 °F 74 °F  
Max Temperature 75 °F 84 °F 102 °F (1936)
Min Temperature 60 °F 65 °F 45 °F (1898)
Degree Days  
Heating Degree Days 0 0  
Month to date heating degree days 0  
Since 1 June heating degree days 22  
Since 1 July heating degree days 0  
Cooling Degree Days 2 9  
Month to date cooling degree days 99  
Year to date cooling degree days 359  
Since 1 June cooling degree days 289  
Growing Degree Days 18 (Base 50)    
Moisture  
Dew Point 60 °F    
Average Humidity 77    
Maximum Humidity 100    
Minimum Humidity 50    
Precipitation  
Precipitation 0.00 in 0.15 in 2.82 in (1990)
Month to date precipitation 1.58  
Year to date precipitation 22.79  
Snow  
Snow 0.00 in 0.00 in 0.00 in ()
Month to date snowfall 0.0  
Since 1 June snowfall 0.0  
Since 1 July snowfall 0.0  
Snow Depth -    
Sea Level Pressure  
Sea Level Pressure 30.00 in    
Wind  
Wind Speed 5 mph (North)    
Max Wind Speed 17 mph    
Max Gust Speed 22 mph    
Visibility 10 miles    
Events      
T = Trace of Precipitation, MM = Missing Value Source: NWS Daily Summary

Daily Weather History Graph

Daily Weather History Graph

Search for Another Location

Airport or City:

Trip Planner

Search our weather history database for the weather conditions in past years. The results will help you decide how hot, cold, wet, or windy it might be!

Date:

Astronomy

Jul. 11, 2013 Rise Set
Actual Time 6:15 AM EDT 9:06 PM EDT
Civil Twilight 5:42 AM EDT 9:38 PM EDT
Nautical Twilight 5:01 AM EDT 10:19 PM EDT
Astronomical Twilight 4:14 AM EDT 11:05 PM EDT
Moon 9:33 AM EDT (7/11) 10:45 PM EDT (7/11)
Length of Visible Light 15h 55m
Length of Day
14h 50m
Waxing Crescent, 10% of the Moon is Illuminated
Jul 11
Waxing Crescent
Jul 15
First Quarter
Jul 22
Full
Jul 29
Last Quarter
Aug 6
New

Hourly Weather History & Observations

Time (EDT) Temp. Dew Point Humidity Pressure Visibility Wind Dir Wind Speed Gust Speed Precip Events Conditions
12:00 AM 66.2 °F 66.2 °F 100% 29.96 in 10.0 mi Calm Calm - 0.00 in   Scattered Clouds
12:20 AM 66.2 °F 66.2 °F 100% 29.96 in 10.0 mi Calm Calm - 0.00 in   Scattered Clouds
12:40 AM 66.2 °F 66.2 °F 100% 29.96 in 10.0 mi Calm Calm - 0.00 in   Mostly Cloudy
1:00 AM 66.2 °F 66.2 °F 100% 29.96 in 10.0 mi Calm Calm - 0.00 in   Mostly Cloudy
1:20 AM 66.2 °F 66.2 °F 100% 29.96 in 10.0 mi Calm Calm - 0.00 in   Mostly Cloudy
1:40 AM 66.2 °F 66.2 °F 100% 29.95 in 10.0 mi Calm Calm - 0.00 in   Mostly Cloudy
2:00 AM 66.2 °F 66.2 °F 100% 29.95 in 10.0 mi SW 3.5 mph - 0.00 in   Mostly Cloudy
2:20 AM 66.2 °F 66.2 °F 100% 29.95 in 10.0 mi Calm Calm - 0.00 in   Overcast
2:40 AM 66.2 °F 66.2 °F 100% 29.95 in 10.0 mi Calm Calm - 0.00 in   Mostly Cloudy
3:00 AM 66.2 °F 66.2 °F 100% 29.95 in 10.0 mi Calm Calm - 0.00 in   Mostly Cloudy
3:20 AM 64.4 °F 64.4 °F 100% 29.95 in 10.0 mi NW 3.5 mph - 0.00 in   Mostly Cloudy
3:40 AM 64.4 °F 62.6 °F 94% 29.95 in 10.0 mi NNW 4.6 mph - 0.00 in   Partly Cloudy
4:00 AM 62.6 °F 62.6 °F 100% 29.96 in 10.0 mi Calm Calm - 0.00 in   Clear
4:20 AM 62.6 °F 62.6 °F 100% 29.96 in 10.0 mi Calm Calm - 0.00 in   Scattered Clouds
4:40 AM 62.6 °F 62.6 °F 100% 29.96 in 10.0 mi Calm Calm - 0.00 in   Mostly Cloudy
5:00 AM 62.6 °F 62.6 °F 100% 29.96 in 10.0 mi Calm Calm - 0.00 in   Scattered Clouds
5:20 AM 62.6 °F 60.8 °F 94% 29.96 in 10.0 mi North 4.6 mph - 0.00 in   Partly Cloudy
5:40 AM 60.8 °F 60.8 °F 100% 29.97 in 10.0 mi NW 5.8 mph - 0.00 in   Scattered Clouds
6:00 AM 60.8 °F 60.8 °F 100% 29.98 in 10.0 mi NNW 4.6 mph - 0.00 in   Scattered Clouds
6:20 AM 60.8 °F 60.8 °F 100% 29.98 in 9.0 mi North 4.6 mph - 0.00 in   Scattered Clouds
6:40 AM 60.8 °F 60.8 °F 100% 29.99 in 10.0 mi North 5.8 mph - 0.00 in   Scattered Clouds
7:00 AM 60.8 °F 60.8 °F 100% 29.99 in 10.0 mi NNE 5.8 mph - 0.00 in   Partly Cloudy
7:20 AM 62.6 °F 62.6 °F 100% 29.99 in 10.0 mi NNW 5.8 mph - 0.00 in   Clear
7:40 AM 62.6 °F 62.6 °F 100% 30.00 in 10.0 mi North 8.1 mph - 0.00 in   Clear
9:15 AM 64.4 °F 64.4 °F 100% 30.00 in 10.0 mi North 8.1 mph - 0.00 in   Clear
9:35 AM 66.2 °F 64.4 °F 94% 30.00 in 10.0 mi North 10.4 mph - 0.00 in   Clear
9:55 AM 68.0 °F 62.6 °F 83% 30.00 in 10.0 mi NNE 8.1 mph - 0.00 in   Clear
10:15 AM 69.8 °F 62.6 °F 78% 30.00 in 10.0 mi NE 10.4 mph - 0.00 in   Clear
10:35 AM 69.8 °F 62.6 °F 78% 30.01 in 10.0 mi NE 10.4 mph - 0.00 in   Clear
10:55 AM 71.6 °F 60.8 °F 69% 30.02 in 10.0 mi NE 13.8 mph - 0.00 in   Scattered Clouds
11:15 AM 71.6 °F 62.6 °F 73% 30.02 in 10.0 mi NE 12.7 mph 19.6 mph 0.00 in   Mostly Cloudy
11:35 AM 71.6 °F 62.6 °F 73% 30.02 in 10.0 mi ENE 11.5 mph - 0.00 in   Mostly Cloudy
11:55 AM 71.6 °F 60.8 °F 69% 30.02 in 10.0 mi NE 13.8 mph - 0.00 in   Scattered Clouds
12:15 PM 71.6 °F 60.8 °F 69% 30.02 in 10.0 mi NE 12.7 mph - 0.00 in   Scattered Clouds
12:35 PM 73.4 °F 62.6 °F 69% 30.02 in 10.0 mi NE 9.2 mph - 0.00 in   Scattered Clouds
12:55 PM 71.6 °F 60.8 °F 69% 30.03 in 10.0 mi NNE 12.7 mph - 0.00 in   Mostly Cloudy
1:15 PM 71.6 °F 62.6 °F 73% 30.03 in 10.0 mi North 12.7 mph - 0.00 in   Mostly Cloudy
1:35 PM 71.6 °F 62.6 °F 73% 30.03 in 10.0 mi NNE 10.4 mph - 0.00 in   Partly Cloudy
1:55 PM 73.4 °F 62.6 °F 69% 30.04 in 10.0 mi North 11.5 mph - 0.00 in   Scattered Clouds
2:15 PM 71.6 °F 60.8 °F 69% 30.03 in 10.0 mi North 13.8 mph 18.4 mph 0.00 in   Mostly Cloudy
2:35 PM 71.6 °F 59.0 °F 64% 30.03 in 10.0 mi North 13.8 mph - 0.00 in   Mostly Cloudy
2:55 PM 73.4 °F 57.2 °F 57% 30.03 in 10.0 mi North 12.7 mph - 0.00 in   Partly Cloudy
3:15 PM 73.4 °F 57.2 °F 57% 30.03 in 10.0 mi NNE 13.8 mph 21.9 mph 0.00 in   Partly Cloudy
3:35 PM 73.4 °F 57.2 °F 57% 30.03 in 10.0 mi North 11.5 mph - 0.00 in   Scattered Clouds
3:55 PM 73.4 °F 57.2 °F 57% 30.03 in 10.0 mi North 12.7 mph 17.3 mph 0.00 in   Mostly Cloudy
4:15 PM 75.2 °F 57.2 °F 53% 30.03 in 10.0 mi North 10.4 mph - 0.00 in   Mostly Cloudy
4:35 PM 73.4 °F 55.4 °F 53% 30.03 in 10.0 mi North 13.8 mph 18.4 mph 0.00 in   Mostly Cloudy
4:55 PM 75.2 °F 55.4 °F 50% 30.03 in 10.0 mi NNE 12.7 mph - 0.00 in   Scattered Clouds
5:15 PM 75.2 °F 55.4 °F 50% 30.03 in 10.0 mi North 17.3 mph 20.7 mph 0.00 in   Scattered Clouds
5:35 PM 73.4 °F 53.6 °F 50% 30.03 in 10.0 mi NNE 15.0 mph 20.7 mph 0.00 in   Scattered Clouds
5:55 PM 73.4 °F 53.6 °F 50% 30.03 in 10.0 mi NNE 11.5 mph 20.7 mph 0.00 in   Partly Cloudy
6:15 PM 73.4 °F 53.6 °F 50% 30.03 in 10.0 mi North 12.7 mph - 0.00 in   Partly Cloudy
6:35 PM 73.4 °F 53.6 °F 50% 30.02 in 10.0 mi North 11.5 mph 18.4 mph 0.00 in   Partly Cloudy
6:55 PM 73.4 °F 53.6 °F 50% 30.03 in 10.0 mi North 16.1 mph - 0.00 in   Scattered Clouds
7:15 PM 73.4 °F 53.6 °F 50% 30.02 in 10.0 mi NNE 13.8 mph - 0.00 in   Scattered Clouds
7:35 PM 73.4 °F 53.6 °F 50% 30.02 in 10.0 mi NNE 12.7 mph - 0.00 in   Partly Cloudy
7:55 PM 73.4 °F 55.4 °F 53% 30.02 in 10.0 mi North 11.5 mph - 0.00 in   Partly Cloudy
8:15 PM 73.4 °F 53.6 °F 50% 30.02 in 10.0 mi North 11.5 mph - 0.00 in   Partly Cloudy
8:35 PM 73.4 °F 55.4 °F 53% 30.02 in 10.0 mi North 10.4 mph - 0.00 in   Partly Cloudy
8:55 PM 71.6 °F 55.4 °F 57% 30.02 in 10.0 mi North 8.1 mph - 0.00 in   Partly Cloudy
9:15 PM 71.6 °F 55.4 °F 57% 30.02 in 10.0 mi North 4.6 mph - 0.00 in   Partly Cloudy
9:35 PM 69.8 °F 57.2 °F 64% 30.02 in 10.0 mi NNE 3.5 mph - 0.00 in   Partly Cloudy
9:55 PM 68.0 °F 57.2 °F 68% 30.02 in 10.0 mi NE 3.5 mph - 0.00 in   Partly Cloudy
10:15 PM 64.4 °F 57.2 °F 77% 30.02 in 10.0 mi Calm Calm - 0.00 in   Clear
10:35 PM 64.4 °F 57.2 °F 77% 30.02 in 10.0 mi Calm Calm - 0.00 in   Clear
10:55 PM 64.4 °F 57.2 °F 77% 30.02 in 10.0 mi Calm Calm - 0.00 in   Clear
11:15 PM 62.6 °F 59.0 °F 88% 30.03 in 10.0 mi Calm Calm - 0.00 in   Clear
11:35 PM 62.6 °F 57.2 °F 82% 30.03 in 10.0 mi Calm Calm - 0.00 in   Clear
11:55 PM 62.6 °F 57.2 °F 82% 30.04 in 10.0 mi Calm Calm - 0.00 in   Clear